This is the latest recevied weather packets stored in our database for station/object N4VTB-13. If no packets are shown the sender has not sent any weather packets the latest 10 day(s).
| Time | Temp. | Humidity | Pressure | Rain* | Wind** | Luminosity | Snow |
|---|---|---|---|---|---|---|---|
| 1777627896 | 11.11° C | 86% | 1017.2 hPa | 0 mm | - | 0 W/m² | - |
| 1777621875 | 12.22° C | 84% | 1017.6 hPa | 0 mm | - | 0 W/m² | - |
| 1777615876 | 13.89° C | 78% | 1017.8 hPa | 0 mm | - | 0 W/m² | - |
| 1777613476 | 14.44° C | 77% | 1017.7 hPa | 0 mm | - | 0 W/m² | - |
| 1777612876 | 14.44° C | 78% | 1017.6 hPa | 0 mm | - | 0 W/m² | - |
| 1777611676 | 15° C | 75% | 1017.5 hPa | 0 mm | - | 0 W/m² | - |
| 1777606876 | 17.22° C | 63% | 1016.7 hPa | 0 mm | - | 0 W/m² | - |
| 1777602675 | 20° C | 52% | 1016.7 hPa | 0 mm | - | 12 W/m² | - |
| 1777600875 | 21.11° C | 47% | 1016.8 hPa | 0 mm | - | 23 W/m² | - |
| 1777595475 | 23.33° C | 42% | 1017.5 hPa | 0 mm | - | 104 W/m² | - |
| 1777591277 | 23.33° C | 44% | 1018.1 hPa | 0 mm | - | 95 W/m² | - |
| 1777590697 | 23.33° C | 46% | 1018.1 hPa | 0 mm | - | 131 W/m² | - |
| 1777581677 | 23.33° C | 49% | 1019.3 hPa | 0 mm | - | 220 W/m² | - |
| 1777575677 | 21.67° C | 54% | 1020.4 hPa | 0 mm | - | 793 W/m² | - |
| 1777573276 | 20° C | 59% | 1020.9 hPa | 0 mm | - | 719 W/m² | - |
| 1777571476 | 19.44° C | 64% | 1021.3 hPa | 0 mm | - | 582 W/m² | - |
| 1777567877 | 17.22° C | 70% | 1021.7 hPa | 0 mm | - | 550 W/m² | - |
| 1777567276 | 17.22° C | 73% | 1021.8 hPa | 0 mm | - | 527 W/m² | - |
| 1777564876 | 12.78° C | 90% | 1021.9 hPa | 0 mm | - | 334 W/m² | - |
| 1777558876 | 7.78° C | 94% | 1022.3 hPa | 0 mm | - | 35 W/m² | - |
| 1777555276 | 7.22° C | 93% | 1022.3 hPa | 0 mm | - | 12 W/m² | - |
| 1777552876 | 7.78° C | 93% | 1022.2 hPa | 0 mm | - | 0 W/m² | - |
| 1777552276 | 7.78° C | 93% | 1022.3 hPa | 0 mm | - | 0 W/m² | - |
| 1777548076 | 8.33° C | 91% | 1022.5 hPa | 0 mm | - | 0 W/m² | - |
| 1777546896 | 8.33° C | 91% | 1022.5 hPa | 0 mm | - | 0 W/m² | - |
* Rain latest hour (hover to see other rain measurements)
** Current wind speed in m/s (hover to see current wind gust speed)